Weather History for KNFL - August, 2013

Change the Weather History Date:

Sunday, August 18, 2013

  Actual Average Record
Temperature  
Mean Temperature 78 °F -  
Max Temperature 100 °F 87 °F 100 °F (1966)
Min Temperature 57 °F 52 °F 33 °F (2004)
Cooling Degree Days 12    
Growing Degree Days 28 (Base 50)    
Moisture  
Dew Point 35 °F    
Average Humidity 21    
Maximum Humidity 42    
Minimum Humidity 10    
Precipitation  
Precipitation 0.00 in - - ()
Sea Level Pressure  
Sea Level Pressure 29.95 in    
Wind  
Wind Speed 6 mph (SSW)    
Max Wind Speed 24 mph    
Max Gust Speed 29 mph    
Visibility 10 miles    
Events      
Averages and records for this station are not official NWS values.
T = Trace of Precipitation, MM = Missing Value Source: NWS Daily Summary

Daily Weather History Graph

Daily Weather History Graph

Search for Another Location

Airport or City:

Trip Planner

Search our weather history database for the weather conditions in past years. The results will help you decide how hot, cold, wet, or windy it might be!

Date:

Astronomy

Aug. 18, 2013 Rise Set
Actual Time 6:10 AM PDT 7:45 PM PDT
Civil Twilight 5:42 AM PDT 8:14 PM PDT
Nautical Twilight 5:07 AM PDT 8:48 PM PDT
Astronomical Twilight 4:31 AM PDT 9:24 PM PDT
Moon 5:55 PM PDT (8/18) 3:25 AM PDT (8/18)
Length of Visible Light 14h 32m
Length of Day
13h 35m
Waxing Gibbous, 93% of the Moon is Illuminated
Aug 18
Waxing Gibbous
Aug 20
Full
Aug 28
Last Quarter
Sep 5
New
Sep 12
First Quarter

Hourly Weather History & Observations

Time (PDT) Temp. Dew Point Humidity Pressure Visibility Wind Dir Wind Speed Gust Speed Precip Events Conditions
12:56 AM 71.1 °F 37.0 °F 29% 29.92 in 10.0 mi West 8.1 mph - N/A   Clear
1:56 AM 69.1 °F 37.9 °F 32% 29.91 in 10.0 mi WSW 5.8 mph - N/A   Clear
2:56 AM 64.9 °F 37.9 °F 37% 29.91 in 10.0 mi SSW 4.6 mph - N/A   Clear
3:56 AM 64.0 °F 37.0 °F 37% 29.91 in 10.0 mi WSW 4.6 mph - N/A   Clear
4:56 AM 60.1 °F 36.0 °F 41% 29.93 in 10.0 mi Calm Calm - N/A   Clear
5:56 AM 57.9 °F 35.1 °F 42% 29.94 in 10.0 mi South 4.6 mph - N/A   Clear
6:56 AM 62.1 °F 34.0 °F 35% 29.96 in 10.0 mi SSE 5.8 mph - N/A   Clear
7:56 AM 71.1 °F 39.0 °F 31% 29.98 in 10.0 mi SSW 4.6 mph - N/A   Clear
8:56 AM 77.0 °F 37.0 °F 24% 29.99 in 10.0 mi WNW 4.6 mph - N/A   Clear
9:56 AM 82.0 °F 27.0 °F 13% 30.00 in 10.0 mi WNW 4.6 mph - N/A   Clear
10:56 AM 86.0 °F 27.0 °F 12% 29.99 in 10.0 mi Calm Calm - N/A   Clear
11:01 AM 87.8 °F 26.6 °F 11% 30.09 in 10.0 mi Calm Calm - N/A   Scattered Clouds
11:56 AM 89.1 °F 30.0 °F 12% 29.99 in 10.0 mi Calm Calm - N/A   Scattered Clouds
12:56 PM 93.0 °F 32.0 °F 12% 29.97 in 10.0 mi Variable 4.6 mph - N/A   Scattered Clouds
1:56 PM 93.9 °F 32.0 °F 11% 29.96 in 10.0 mi Calm Calm - N/A   Scattered Clouds
2:56 PM 97.0 °F 33.1 °F 11% 29.92 in 10.0 mi West 6.9 mph - N/A   Scattered Clouds
3:56 PM 98.1 °F 33.1 °F 10% 29.90 in 10.0 mi Variable 3.5 mph - N/A   Scattered Clouds
4:56 PM 98.1 °F 33.1 °F 10% 29.88 in 10.0 mi Variable 6.9 mph - N/A   Scattered Clouds
5:56 PM 96.1 °F 35.1 °F 12% 29.88 in 10.0 mi East 16.1 mph 21.9 mph N/A   Mostly Cloudy
6:56 PM 93.9 °F 36.0 °F 13% 29.89 in 10.0 mi ESE 16.1 mph 24.2 mph N/A   Clear
7:56 PM 89.1 °F 37.9 °F 16% 29.91 in 10.0 mi SSE 12.7 mph - N/A   Clear
8:56 PM 87.1 °F 39.0 °F 18% 29.93 in 10.0 mi SSE 11.5 mph 19.6 mph N/A   Clear
9:56 PM 88.0 °F 39.0 °F 18% 29.97 in 10.0 mi West 5.8 mph 19.6 mph N/A   Clear
10:56 PM 84.9 °F 43.0 °F 23% 29.98 in 10.0 mi SSE 12.7 mph - N/A   Scattered Clouds
11:56 PM 82.0 °F 44.1 °F 26% 30.00 in 10.0 mi South 24.2 mph 28.8 mph N/A   Clear